Weather History for Siloam Springs, AR

Change the Weather History Date:

Thursday, August 22, 2013

  Actual Average Record
Temperature  
Mean Temperature 76 °F -  
Max Temperature 89 °F 86 °F 98 °F (2003)
Min Temperature 64 °F 65 °F 62 °F (2004)
Cooling Degree Days 12    
Growing Degree Days 26 (Base 50)    
Moisture  
Dew Point 64 °F    
Average Humidity 66    
Maximum Humidity 83    
Minimum Humidity 43    
Precipitation  
Precipitation 0.00 in - - ()
Sea Level Pressure  
Sea Level Pressure 30.11 in    
Wind  
Wind Speed 3 mph (ESE)    
Max Wind Speed 9 mph    
Max Gust Speed -    
Visibility 10 miles    
Events      
Averages and records for this station are not official NWS values.
T = Trace of Precipitation, MM = Missing Value Source: NWS Daily Summary

Daily Weather History Graph

Daily Weather History Graph

Search for Another Location

Airport:

Trip Planner

Search our weather history database for the weather conditions in past years. The results will help you decide how hot, cold, wet, or windy it might be!

Date:

Astronomy

Aug. 22, 2013 Rise Set
Actual Time 6:41 AM CDT 7:58 PM CDT
Civil Twilight 6:15 AM CDT 8:25 PM CDT
Nautical Twilight 5:43 AM CDT 8:57 PM CDT
Astronomical Twilight 5:09 AM CDT 9:30 PM CDT
Moon 8:49 PM CDT (8/22) 8:26 AM CDT (8/22)
Length of Visible Light 14h 10m
Length of Day
13h 17m
Waning Gibbous, 96% of the Moon is Illuminated
Aug 22
Waning Gibbous
Aug 28
Last Quarter
Sep 5
New
Sep 12
First Quarter
Sep 19
Full

Hourly Weather History & Observations

Time (CDT) Temp. Heat Index Dew Point Humidity Pressure Visibility Wind Dir Wind Speed Gust Speed Precip Events Conditions
12:15 AM 71.6 °F - 60.8 °F 69% 30.12 in 10.0 mi ESE 3.5 mph - N/A   Clear
12:35 AM 71.6 °F - 62.6 °F 73% 30.11 in 10.0 mi Calm Calm - N/A   Clear
12:55 AM 71.6 °F - 62.6 °F 73% 30.12 in 10.0 mi East 4.6 mph - N/A   Clear
1:35 AM 69.8 °F - 62.6 °F 78% 30.12 in 10.0 mi East 3.5 mph - N/A   Clear
1:55 AM 69.8 °F - 60.8 °F 73% 30.12 in 10.0 mi ESE 3.5 mph - N/A   Clear
2:15 AM 69.8 °F - 60.8 °F 73% 30.12 in 10.0 mi ESE 3.5 mph - N/A   Clear
2:35 AM 69.8 °F - 60.8 °F 73% 30.13 in 10.0 mi East 4.6 mph - N/A   Clear
2:56 AM 69.8 °F - 60.8 °F 73% 30.12 in 10.0 mi East 5.8 mph - N/A   Clear
3:15 AM 68.0 °F - 60.8 °F 78% 30.13 in 10.0 mi East 4.6 mph - N/A   Clear
3:35 AM 68.0 °F - 60.8 °F 78% 30.12 in 10.0 mi ESE 4.6 mph - N/A   Clear
3:55 AM 68.0 °F - 60.8 °F 78% 30.12 in 10.0 mi ESE 3.5 mph - N/A   Clear
4:55 AM 66.2 °F - 60.8 °F 83% 30.11 in 10.0 mi ESE 4.6 mph - N/A   Clear
5:15 AM 66.2 °F - 60.8 °F 83% 30.11 in 10.0 mi East 3.5 mph - N/A   Clear
5:16 AM 66.2 °F - 60.8 °F 83% 30.11 in 10.0 mi East 3.5 mph - N/A   Clear
5:35 AM 66.2 °F - 60.8 °F 83% 30.12 in 10.0 mi ESE 4.6 mph - N/A   Clear
5:55 AM 66.2 °F - 60.8 °F 83% 30.12 in 10.0 mi ESE 5.8 mph - N/A   Clear
6:15 AM 66.2 °F - 59.0 °F 78% 30.13 in 9.0 mi Calm Calm - N/A   Clear
6:35 AM 64.4 °F - 59.0 °F 83% 30.13 in 8.0 mi East 3.5 mph - N/A   Clear
6:55 AM 66.2 °F - 59.0 °F 78% 30.14 in 7.0 mi East 4.6 mph - N/A   Clear
7:15 AM 66.2 °F - 60.8 °F 83% 30.14 in 7.0 mi East 4.6 mph - N/A   Clear
7:35 AM 66.2 °F - 60.8 °F 83% 30.15 in 9.0 mi ESE 3.5 mph - N/A   Clear
7:36 AM 66.2 °F - 60.8 °F 83% 30.15 in 9.0 mi ESE 4.6 mph - N/A   Clear
7:55 AM 69.8 °F - 60.8 °F 73% 30.16 in 10.0 mi ESE 4.6 mph - N/A   Clear
8:15 AM 71.6 °F - 62.6 °F 73% 30.16 in 10.0 mi Calm Calm - N/A   Clear
8:35 AM 71.6 °F - 62.6 °F 73% 30.16 in 10.0 mi ESE 4.6 mph - N/A   Clear
8:55 AM 73.4 °F - 64.4 °F 73% 30.16 in 10.0 mi SE 3.5 mph - N/A   Clear
9:15 AM 73.4 °F - 64.4 °F 73% 30.16 in 10.0 mi Calm Calm - N/A   Clear
9:35 AM 75.2 °F - 64.4 °F 69% 30.16 in 10.0 mi Calm Calm - N/A   Clear
9:56 AM 77.0 °F - 66.2 °F 69% 30.16 in 10.0 mi Calm Calm - N/A   Clear
10:15 AM 80.6 °F 82.7 °F 66.2 °F 61% 30.16 in 10.0 mi Calm Calm - N/A   Clear
10:56 AM 82.4 °F 85.4 °F 68.0 °F 62% 30.15 in 10.0 mi SSW 9.2 mph - N/A   Clear
11:15 AM 84.2 °F 87.3 °F 68.0 °F 58% 30.15 in 10.0 mi SSW 9.2 mph - N/A   Clear
11:35 AM 84.2 °F 87.3 °F 68.0 °F 58% 30.14 in 10.0 mi South 8.1 mph - N/A   Clear
11:55 AM 86.0 °F 89.4 °F 68.0 °F 55% 30.14 in 10.0 mi SW 8.1 mph - N/A   Clear
12:15 PM 86.0 °F 89.4 °F 68.0 °F 55% 30.14 in 10.0 mi WSW 6.9 mph - N/A   Clear
12:55 PM 87.8 °F 91.4 °F 68.0 °F 52% 30.13 in 10.0 mi West 3.5 mph - N/A   Clear
1:16 PM 87.8 °F 91.4 °F 68.0 °F 52% 30.12 in 10.0 mi West 4.6 mph - N/A   Partly Cloudy
1:35 PM 87.8 °F 91.4 °F 68.0 °F 52% 30.11 in 10.0 mi SW 5.8 mph - N/A   Partly Cloudy
1:55 PM 89.6 °F 92.2 °F 66.2 °F 46% 30.11 in 10.0 mi West 6.9 mph - N/A   Partly Cloudy
2:15 PM 89.6 °F 92.2 °F 66.2 °F 46% 30.11 in 10.0 mi SW 6.9 mph - N/A   Mostly Cloudy
2:35 PM 89.6 °F 92.2 °F 66.2 °F 46% 30.10 in 10.0 mi NW 4.6 mph - N/A   Partly Cloudy
2:55 PM 89.6 °F 91.1 °F 64.4 °F 43% 30.10 in 10.0 mi WSW 4.6 mph - N/A   Partly Cloudy
3:15 PM 87.8 °F 90.4 °F 66.2 °F 49% 30.09 in 10.0 mi NNW 5.8 mph - N/A   Clear
3:35 PM 87.8 °F 90.4 °F 66.2 °F 49% 30.09 in 10.0 mi NNW 4.6 mph - N/A   Scattered Clouds
3:36 PM 87.8 °F 90.4 °F 66.2 °F 49% 30.09 in 10.0 mi NW 3.5 mph - N/A   Scattered Clouds
3:55 PM 87.8 °F 89.4 °F 64.4 °F 46% 30.08 in 10.0 mi North 3.5 mph - N/A   Mostly Cloudy
4:36 PM 86.0 °F 88.2 °F 66.2 °F 51% 30.08 in 10.0 mi Calm Calm - N/A   Mostly Cloudy
4:55 PM 87.8 °F 90.4 °F 66.2 °F 49% 30.08 in 10.0 mi Calm Calm - N/A   Overcast
5:15 PM 86.0 °F 88.2 °F 66.2 °F 51% 30.07 in 10.0 mi Calm Calm - N/A   Mostly Cloudy
5:35 PM 84.2 °F 87.3 °F 68.0 °F 58% 30.07 in 10.0 mi Calm Calm - N/A   Mostly Cloudy
5:55 PM 86.0 °F 89.4 °F 68.0 °F 55% 30.07 in 10.0 mi Calm Calm - N/A   Mostly Cloudy
6:15 PM 84.2 °F 86.6 °F 66.2 °F 55% 30.06 in 10.0 mi Calm Calm - N/A   Scattered Clouds
6:35 PM 84.2 °F 87.3 °F 68.0 °F 58% 30.06 in 10.0 mi Calm Calm - N/A   Clear
6:56 PM 84.2 °F 88.4 °F 69.8 °F 62% 30.06 in 10.0 mi Calm Calm - N/A   Partly Cloudy
7:15 PM 84.2 °F 88.4 °F 69.8 °F 62% 30.06 in 10.0 mi ESE 3.5 mph - N/A   Partly Cloudy
7:35 PM 82.4 °F 85.4 °F 68.0 °F 62% 30.06 in 10.0 mi ENE 4.6 mph - N/A   Partly Cloudy
7:55 PM 80.6 °F 83.2 °F 68.0 °F 65% 30.06 in 10.0 mi Calm Calm - N/A   Partly Cloudy
8:16 PM 80.6 °F 82.7 °F 66.2 °F 61% 30.06 in 10.0 mi Calm Calm - N/A   Clear
8:35 PM 78.8 °F - 66.2 °F 65% 30.07 in 10.0 mi Calm Calm - N/A   Clear
8:55 PM 77.0 °F - 66.2 °F 69% 30.07 in 10.0 mi Calm Calm - N/A   Clear
9:15 PM 75.2 °F - 66.2 °F 73% 30.08 in 10.0 mi ENE 3.5 mph - N/A   Clear
9:35 PM 77.0 °F - 66.2 °F 69% 30.09 in 10.0 mi ENE 4.6 mph - N/A   Clear
9:55 PM 75.2 °F - 66.2 °F 73% 30.09 in 10.0 mi Calm Calm - N/A   Clear
10:15 PM 75.2 °F - 64.4 °F 69% 30.10 in 10.0 mi Calm Calm - N/A   Clear
10:35 PM 75.2 °F - 64.4 °F 69% 30.10 in 10.0 mi ESE 3.5 mph - N/A   Clear
10:36 PM 75.2 °F - 64.4 °F 69% 30.10 in 10.0 mi ESE 3.5 mph - N/A   Clear
10:55 PM 75.2 °F - 64.4 °F 69% 30.10 in 10.0 mi ESE 3.5 mph - N/A   Clear
11:15 PM 73.4 °F - 64.4 °F 73% 30.10 in 10.0 mi ESE 3.5 mph - N/A   Clear
11:35 PM 73.4 °F - 64.4 °F 73% 30.10 in 10.0 mi ESE 5.8 mph - N/A   Clear
11:55 PM 73.4 °F - 64.4 °F 73% 30.10 in 10.0 mi East 4.6 mph - N/A   Clear